Weather in Chornomorsk

Ukraine / Odesa District     46°18′12″N   30°39′51″E
temp.,
°C
wind,
m/s
gust,
m/s
humid.,
%
clouds,
%
prec.,
mm/h
press.,
hPa
HPBL,
m
9 march, tue
tue900:00+4n467267 0.0 1017194
03:00+3nnw466983 0.0 1018890
06:00+1n686798 0.0 1019553
09:00+1n676095 0.0 1020633
12:00+2n45454 0.0 10221043
15:00+2sse22442 0.0 1022439
18:00+3s335020 0.0 1022364
21:00+2wsw235842 0.0 1023205
10 march, wed
wed1000:00+2ene556218 0.0 1024580
03:00+2e556410 0.0 1025567
06:00+1e666363 0.0 1025635
09:00+1e776480 0.0 1025718
12:00+1e7867100 0.0 1025775
15:00+1e7759100 0.0 1023860
18:00+1ene7755100 0.0 1022844
21:00+2ene8951100 0.0 1023969
11 march, thu
thu1100:00+1ene9959100 0.0 1023813
03:00+1ene8859100 0.0 1024822
06:000ene8861100 0.0 1023878
09:000ene8959100 0.0 1025968
12:000ene886174 0.0 1025897
15:00+1ene665237 0.0 10251002
18:00+2ene45440 0.0 1025948
21:00+2ese35450 0.0 10261224
12 march, fri
fri1200:00+2se44540 0.0 10281189
03:00+2sse555843 0.0 10281120
06:00+1sse666182 0.0 10271061
09:00+1sse886685 0.0 10281075
12:00+1sse9106890 0.0 10271058
15:00+2sse10116789 0.0 10261124
18:00+3sse11137399 0.0 10241105
21:00+3sse9128799 0.3 1025735
13 march, sat
sat1300:00+3s101391100 0.6 1024770
03:00+3ssw101396100 2.1 1024737
06:00+3s91196100 0.9 1024628
09:00+4s81183100 1.3 1024731
12:00+4sse81181100 0.1 1025658
15:00+4sse71081100 0.1 1024423
18:00+4sse61082100 0.0 1022373
21:00+4sse71182100 0.0 1022480